TimeEST,TemperatureF,Dew PointF,Humidity,Sea Level PressureIn,VisibilityMPH,Wind Direction,Wind SpeedMPH,Gust SpeedMPH,PrecipitationIn,Events,Conditions,WindDirDegrees,DateUTC
12:56 AM,8.1,-6.0,53,30.17,10.0,NNW,5.8,-,N/A,,Clear,330,2013-01-24 05:56:00
1:56 AM,7.0,-6.0,55,30.17,10.0,NW,3.5,-,N/A,,Clear,320,2013-01-24 06:56:00
2:56 AM,6.1,-6.0,58,30.15,10.0,NNW,6.9,-,N/A,,Clear,330,2013-01-24 07:56:00
3:56 AM,6.1,-9.0,50,30.14,10.0,NNW,6.9,-,N/A,,Clear,340,2013-01-24 08:56:00
4:56 AM,7.0,-8.0,51,30.14,10.0,NNW,10.4,-,N/A,,Clear,340,2013-01-24 09:56:00
5:56 AM,7.0,-6.0,55,30.15,10.0,NNW,10.4,-,N/A,,Clear,340,2013-01-24 10:56:00
6:56 AM,7.0,-6.0,55,30.16,10.0,NNW,12.7,-,N/A,,Clear,340,2013-01-24 11:56:00
7:56 AM,8.1,-5.1,55,30.17,9.0,NNW,9.2,-,N/A,,Clear,340,2013-01-24 12:56:00
8:56 AM,10.9,-6.0,47,30.17,9.0,NW,15.0,21.9,N/A,,Clear,320,2013-01-24 13:56:00
9:56 AM,14.0,-5.8,41,30.16,10.0,NNW,19.6,26.5,N/A,,Clear,330,2013-01-24 14:56:00
10:56 AM,16.0,-6.0,38,30.16,10.0,NW,17.3,25.3,N/A,,Clear,310,2013-01-24 15:56:00
11:56 AM,17.1,-7.1,34,30.14,10.0,NNW,20.7,31.1,N/A,,Clear,330,2013-01-24 16:56:00
12:56 PM,19.0,-6.0,33,30.12,10.0,NNW,15.0,23.0,N/A,,Clear,330,2013-01-24 17:56:00
1:56 PM,21.0,-7.1,29,30.13,10.0,WNW,17.3,27.6,N/A,,Clear,300,2013-01-24 18:56:00
2:56 PM,21.0,-8.0,28,30.16,10.0,NW,19.6,32.2,N/A,,Clear,320,2013-01-24 19:56:00
3:56 PM,21.0,-7.1,29,30.16,10.0,WNW,17.3,26.5,N/A,,Clear,300,2013-01-24 20:56:00
4:56 PM,19.0,-9.0,29,30.19,9.0,WNW,18.4,28.8,N/A,,Clear,300,2013-01-24 21:56:00
5:56 PM,19.0,-9.9,27,30.22,10.0,NW,16.1,25.3,N/A,,Clear,310,2013-01-24 22:56:00
6:56 PM,18.0,-8.0,31,30.24,10.0,NW,17.3,27.6,N/A,,Clear,310,2013-01-24 23:56:00
7:56 PM,17.1,-9.0,31,30.25,10.0,WNW,13.8,23.0,N/A,,Clear,300,2013-01-25 00:56:00
8:56 PM,16.0,-8.0,34,30.27,10.0,WNW,12.7,-,N/A,,Clear,300,2013-01-25 01:56:00
9:56 PM,15.1,-5.1,41,30.27,10.0,NW,17.3,32.2,N/A,,Clear,310,2013-01-25 02:56:00
10:56 PM,15.1,-2.0,47,30.29,10.0,NW,13.8,21.9,N/A,,Clear,310,2013-01-25 03:56:00
11:56 PM,15.1,-0.9,49,30.30,10.0,WNW,18.4,27.6,N/A,,Clear,300,2013-01-25 04:56:00